Weather WX

World > North America > United States > North Dakota

Bowbells, North Dakota Regional Weather

Lat: 48.80N, Lon: 102.25W
Wx Zone: NDZ002
Feedback

Bowbells, ND Regional Weather

Expires:201907190700;;287070
ASUS43 KBIS 190610
RWRND 

NORTH DAKOTA REGIONAL WEATHER ROUNDUP
NATIONAL WEATHER SERVICE BISMARCK ND
100 AM CDT FRI JUL 19 2019

NOTE: "FAIR" INDICATES FEW OR NO CLOUDS BELOW 12,000 FEET WITH NO
SIGNIFICANT WEATHER AND/OR OBSTRUCTIONS TO VISIBILITY.



NDZ001>003-009>011-017-190700-
NORTHWEST NORTH DAKOTA
  
CITY           SKY/WX    TMP DP  RH WIND       PRES   REMARKS
WILLISTON      MOCLDY    68  52  56 W9        29.67R                  
6HR MIN TEMP:  64; 6HR MAX TEMP:  84;                                

MINOT          CLEAR     71  57  61 SW5       29.62S                  
MINOT AFB      CLEAR     64  58  81 W8        29.61S                  
$$
 

SKY/WX - Weather  TMP - Temperature  DP - Dew Point  RH - Relative Humidity
WIND - Wind Direction/Speed PRES - Barometric Pressure VSB - Visibility
WCI - Wind Chill Index E13G22 Wind - East Wind 13 mph/Gusts of 22 mph